Visalia, CA

4:46 AM PDT on October 14, 2019 (GMT -0700)
Visalia Municipal

Weather History for KVIS - August, 2019

Change the Weather History Date:

Friday, August 16, 2019

  Actual Average Record
Temperature  
Mean Temperature 87 °F -  
Max Temperature 105 °F 92 °F 107 °F (1951)
Min Temperature 70 °F 63 °F 49 °F (1954)
Cooling Degree Days 22    
Growing Degree Days 37 (Base 50)    
Moisture  
Dew Point 59 °F    
Average Humidity 45    
Maximum Humidity 76    
Minimum Humidity 16    
Precipitation  
Precipitation 0.00 in - - ()
Sea Level Pressure  
Sea Level Pressure 29.81 in    
Wind  
Wind Speed 4 mph (SSW)    
Max Wind Speed 9 mph    
Max Gust Speed -    
Visibility 10 miles    
Events      
Averages and records for this station are not official NWS values.
T = Trace of Precipitation, MM = Missing Value Source: NWS Daily Summary

Daily Weather History Graph

Daily Weather History Graph

Search for Another Location

Airport or City:

Astronomy

Aug. 16, 2019 Rise Set
Actual Time 6:16 AM PDT 7:46 PM PDT
Civil Twilight 5:48 AM PDT 8:14 PM PDT
Nautical Twilight 5:16 AM PDT 8:46 PM PDT
Astronomical Twilight 4:41 AM PDT 9:21 PM PDT
Moon 8:50 PM PDT (8/16) 7:12 AM PDT (8/16)
Length of Visible Light 14h 25m
Length of Day
13h 30m
Full, 99% of the Moon is Illuminated
Aug 16
Full
Aug 23
Last Quarter
Aug 30
New
Sep 5
First Quarter
Sep 13
Full

Hourly Weather History & Observations

Time (PDT) Temp. Heat Index Dew Point Humidity Pressure Visibility Wind Dir Wind Speed Gust Speed Precip Events Conditions
12:56 AM 75.9 °F - 62.1 °F 62% 29.84 in 10.0 mi ENE 3.5 mph - N/A   Clear
1:56 AM 75.9 °F - 60.1 °F 58% 29.84 in 10.0 mi East 3.5 mph - N/A   Clear
2:56 AM 73.0 °F - 63.0 °F 71% 29.83 in 10.0 mi East 6.9 mph - N/A   Clear
3:56 AM 70.0 °F - 62.1 °F 76% 29.83 in 10.0 mi ESE 4.6 mph - N/A   Clear
4:56 AM 71.1 °F - 61.0 °F 70% 29.83 in 10.0 mi Calm Calm - N/A   Clear
5:56 AM 70.0 °F - 61.0 °F 73% 29.84 in 10.0 mi Calm Calm - N/A   Clear
6:56 AM 70.0 °F - 60.1 °F 71% 29.85 in 10.0 mi East 3.5 mph - N/A   Clear
7:56 AM 77.0 °F - 59.0 °F 54% 29.87 in 10.0 mi Calm Calm - N/A   Clear
8:56 AM 82.9 °F 82.6 °F 57.9 °F 42% 29.88 in 10.0 mi Calm Calm - N/A   Clear
9:56 AM 86.0 °F 85.0 °F 57.9 °F 38% 29.87 in 8.0 mi Variable 4.6 mph - N/A   Clear
10:42 AM 89.6 °F 89.5 °F 60.8 °F 38% 29.86 in 1.2 mi SSW 3.5 mph - N/A   Haze
10:56 AM 90.0 °F 89.7 °F 60.1 °F 37% 29.86 in 10.0 mi Variable 4.6 mph - N/A   Clear
11:56 AM 93.0 °F 93.0 °F 61.0 °F 34% 29.85 in 10.0 mi South 8.1 mph - N/A   Clear
12:56 PM 95.0 °F 96.0 °F 63.0 °F 34% 29.83 in 10.0 mi South 4.6 mph - N/A   Clear
1:56 PM 100.0 °F 100.2 °F 59.0 °F 26% 29.81 in 10.0 mi West 6.9 mph - N/A   Clear
2:56 PM 102.0 °F 101.1 °F 57.0 °F 22% 29.78 in 10.0 mi West 8.1 mph - N/A   Clear
3:56 PM 102.9 °F 103.0 °F 57.9 °F 23% 29.76 in 10.0 mi West 9.2 mph - N/A   Clear
4:56 PM 104.0 °F - 52.0 °F 18% 29.74 in 10.0 mi WNW 5.8 mph - N/A   Clear
5:56 PM 104.0 °F - 48.9 °F 16% 29.73 in 10.0 mi NNE 4.6 mph - N/A   Clear
6:56 PM 102.0 °F - 52.0 °F 19% 29.72 in 10.0 mi West 3.5 mph - N/A   Clear
7:56 PM 93.0 °F 91.7 °F 57.0 °F 30% 29.72 in 10.0 mi Calm Calm - N/A   Clear
8:56 PM 84.9 °F 86.1 °F 64.0 °F 49% 29.73 in 10.0 mi Calm Calm - N/A   Clear
9:56 PM 82.0 °F 83.4 °F 64.0 °F 54% 29.75 in 8.0 mi SSW 3.5 mph - N/A   Clear
10:56 PM 80.1 °F 80.9 °F 60.1 °F 50% 29.76 in 10.0 mi West 4.6 mph - N/A   Clear
11:56 PM 75.9 °F - 60.1 °F 58% 29.76 in 10.0 mi ESE 6.9 mph - N/A   Clear